Weather History for Gage, OK

Change the Weather History Date:

Saturday, February 11, 2012

  Actual Average Record
Temperature  
Mean Temperature 19 °F -  
Max Temperature 23 °F 49 °F 90 °F (1962)
Min Temperature 15 °F 23 °F -7 °F (1981)
Degree Days  
Heating Degree Days 46    
Moisture  
Dew Point 8 °F    
Average Humidity 66    
Maximum Humidity 80    
Minimum Humidity 48    
Precipitation  
Precipitation 0.00 in - - ()
Sea Level Pressure  
Sea Level Pressure 30.64 in    
Wind  
Wind Speed 11 mph (NE)    
Max Wind Speed 16 mph    
Max Gust Speed 16 mph    
Visibility 10 miles    
Events      
Averages and records for this station are not official NWS values.
T = Trace of Precipitation, MM = Missing Value Source: NWS Daily Summary

Daily Weather History Graph

Daily Weather History Graph

Search for Another Location

Airport:

Trip Planner

Search our weather history database for the weather conditions in past years. The results will help you decide how hot, cold, wet, or windy it might be!

Date:

Astronomy

Feb. 11, 2012 Rise Set
Actual Time 7:31 AM CST 6:15 PM CST
Civil Twilight 7:05 AM CST 6:42 PM CST
Nautical Twilight 6:34 AM CST 7:12 PM CST
Astronomical Twilight 6:04 AM CST 7:42 PM CST
Moon 10:54 PM CST (2/11) 9:24 AM CST (2/11)
Length of Visible Light 11h 37m
Length of Day
10h 44m
Waning Gibbous, 82% of the Moon is Illuminated
Feb 11
Waning Gibbous
Feb 14
Last Quarter
Feb 21
New
Feb 29
First Quarter
Mar 8
Full

Hourly Weather History & Observations

Time (CST) Temp. Windchill Dew Point Humidity Pressure Visibility Wind Dir Wind Speed Gust Speed Precip Events Conditions
12:53 AM 19.9 °F 7.3 °F 9.0 °F 62% 30.50 in 10.0 mi NE 12.7 mph - N/A   Clear
1:53 AM 19.0 °F 6.1 °F 8.1 °F 62% 30.54 in 10.0 mi NNE 12.7 mph - N/A   Clear
2:53 AM 18.0 °F 4.2 °F 8.1 °F 65% 30.56 in 10.0 mi NE 13.8 mph - N/A   Clear
3:53 AM 17.1 °F 5.0 °F 9.0 °F 71% 30.59 in 10.0 mi NNE 10.4 mph - N/A   Clear
4:53 AM 18.0 °F 5.4 °F 9.0 °F 68% 30.62 in 10.0 mi NNE 11.5 mph - N/A   Partly Cloudy
5:53 AM 18.0 °F 5.4 °F 10.0 °F 71% 30.64 in 10.0 mi NNE 11.5 mph - N/A   Mostly Cloudy
6:03 AM 17.6 °F 4.3 °F 10.4 °F 73% 30.57 in 10.0 mi NNE 12.7 mph - N/A   Overcast
6:32 AM 17.6 °F 2.7 °F 8.6 °F 68% 30.58 in 10.0 mi NNE 16.1 mph - N/A   Overcast
6:53 AM 17.1 °F 3.6 °F 8.1 °F 68% 30.67 in 10.0 mi NNE 12.7 mph - N/A   Overcast
7:53 AM 16.0 °F 0.6 °F 8.1 °F 71% 30.69 in 10.0 mi NNE 16.1 mph - N/A   Overcast
8:53 AM 15.1 °F -0.1 °F 7.0 °F 70% 30.72 in 10.0 mi NNE 15.0 mph - N/A   Overcast
9:53 AM 16.0 °F 2.9 °F 8.1 °F 71% 30.73 in 10.0 mi North 11.5 mph - N/A   Overcast
10:45 AM 15.8 °F 1.4 °F 8.6 °F 73% 30.65 in 10.0 mi NNE 13.8 mph - 0.00 in Rain Light Freezing Rain
10:53 AM 17.1 °F 3.6 °F 8.1 °F 68% 30.74 in 9.0 mi NNE 12.7 mph - 0.00 in   Overcast
11:53 AM 17.1 °F 4.3 °F 6.1 °F 62% 30.72 in 10.0 mi NNE 11.5 mph - N/A   Overcast
12:53 PM 18.0 °F 4.2 °F 6.1 °F 60% 30.72 in 10.0 mi NE 13.8 mph - N/A   Overcast
1:53 PM 19.0 °F 6.1 °F 6.1 °F 57% 30.69 in 10.0 mi NNE 12.7 mph - N/A   Overcast
2:53 PM 21.9 °F 9.8 °F 7.0 °F 53% 30.65 in 10.0 mi NNE 12.7 mph - N/A   Clear
3:53 PM 23.0 °F 14.7 °F 6.1 °F 48% 30.65 in 10.0 mi NE 6.9 mph 16.1 mph N/A   Clear
4:53 PM 21.9 °F 15.7 °F 7.0 °F 53% 30.64 in 10.0 mi ENE 4.6 mph - N/A   Clear
5:53 PM 21.0 °F 12.4 °F 6.1 °F 53% 30.63 in 10.0 mi East 6.9 mph - N/A   Clear
6:53 PM 19.0 °F 11.1 °F 8.1 °F 62% 30.66 in 10.0 mi ENE 5.8 mph - N/A   Clear
7:53 PM 18.0 °F 11.1 °F 10.0 °F 71% 30.67 in 10.0 mi ENE 4.6 mph - N/A   Clear
8:53 PM 17.1 °F 11.7 °F 10.0 °F 74% 30.69 in 10.0 mi East 3.5 mph - N/A   Clear
9:53 PM 17.1 °F 10.0 °F 10.0 °F 74% 30.67 in 10.0 mi East 4.6 mph - N/A   Clear
10:53 PM 16.0 °F 8.8 °F 10.0 °F 77% 30.66 in 10.0 mi East 4.6 mph - N/A   Clear
11:53 PM 15.1 °F - 10.0 °F 80% 30.65 in 10.0 mi Calm Calm - N/A   Clear